Location: Claremont
(33.9858°S, 18.4575°E)
Time: 04:05:05
(UTC+00:00)

GRACE-FO 1 - Pass Details

Date: 03 March 2021
Orbit: 481 x 504 km, 89.0° (Epoch: 10 April)

Event Time Altitude Azimuth Distance (km) Brightness Sun altitude
Rises 18:38:33 0° 178° (S) 2,587 8.5 -16.6°
Reaches altitude 10° 18:40:39 10° 177° (S) 1,695 7.5 -17.1°
Maximum altitude 18:44:20 83° 90° (E) 499 4.4 -17.8°
Enters shadow 18:46:48 20° 1° (N) 1,191 6.3 -18.2°
